EW4650 Weather Reports


Display with metric or nautical units.
time (UTC)temp
F
wind
direction
speed
MPH
gust
MPH
rain 1hr
in
rain 24hr
in
rain mn
in
humidity
%
barometer
mb
20260903235010 94 118 9.0 16.0 0.00 0.00 0.00 45 1006.7
20260903234610 95 123 5.0 16.0 0.00 0.00 0.00 45 1006.8
20260903234010 95 124 8.0 15.0 0.00 0.00 0.00 45 1006.8
20260903233512 96 160 8.0 15.0 0.00 0.00 0.00 44 1006.8
20260903233009 96 150 7.0 15.0 0.00 0.00 0.00 43 1006.8
20260903232509 96 135 7.0 15.0 0.00 0.00 0.00 42 1006.7
20260903232009 96 111 10.0 15.0 0.00 0.00 0.00 42 1006.6
20260903231509 96 89 8.0 13.0 0.00 0.00 0.00 42 1006.5
20260903231008 96 156 6.0 15.0 0.00 0.00 0.00 41 1006.6
20260903230509 97 134 8.0 15.0 0.00 0.00 0.00 40 1006.6
20260903230010 98 107 8.0 12.0 0.00 0.00 0.00 40 1006.6
20260903225510 97 117 2.0 11.0 0.00 0.00 0.00 41 1006.6
20260903225008 97 184 6.0 11.0 0.00 0.00 0.00 42 1006.6
20260903224507 96 176 5.0 11.0 0.00 0.00 0.00 41 1006.6
20260903224008 96 162 5.0 10.0 0.00 0.00 0.00 40 1006.6
20260903223507 96 165 6.0 12.0 0.00 0.00 0.00 39 1006.6
20260903223007 97 67 6.0 14.0 0.00 0.00 0.00 39 1006.6
20260903222506 99 136 10.0 13.0 0.00 0.00 0.00 37 1006.5
20260903222006 100 92 5.0 13.0 0.00 0.00 0.00 38 1006.4
20260903221509 100 203 6.0 16.0 0.00 0.00 0.00 39 1006.5
20260903221004 100 221 8.0 16.0 0.00 0.00 0.00 39 1006.6
20260903220505 99 199 8.0 16.0 0.00 0.00 0.00 39 1006.5
20260903220005 100 175 10.0 16.0 0.00 0.00 0.00 38 1006.6
20260903215503 100 170 7.0 14.0 0.00 0.00 0.00 38 1006.6
20260903215002 100 130 7.0 14.0 0.00 0.00 0.00 39 1006.6
20260903214501 100 171 5.0 15.0 0.00 0.00 0.00 39 1006.5
20260903214101 100 192 8.0 15.0 0.00 0.00 0.00 39 1006.6
20260903213600 100 111 6.0 11.0 0.00 0.00 0.00 40 1006.6
20260903213100 99 171 7.0 14.0 0.00 0.00 0.00 40 1006.6
20260903212557 99 149 8.0 14.0 0.00 0.00 0.00 39 1006.9
20260903212057 99 160 6.0 14.0 0.00 0.00 0.00 40 1006.8
20260903211555 100 189 6.0 15.0 0.00 0.00 0.00 39 1007.0
20260903211054 99 196 7.0 15.0 0.00 0.00 0.00 41 1007.1
20260903210557 99 205 7.0 15.0 0.00 0.00 0.00 40 1007.0
20260903210054 99 244 8.0 16.0 0.00 0.00 0.00 41 1007.0
20260903205550 99 171 6.0 10.0 0.00 0.00 0.00 41 1007.1
20260903205052 98 182 4.0 11.0 0.00 0.00 0.00 42 1007.1
20260903204552 98 259 3.0 11.0 0.00 0.00 0.00 42 1007.3
20260903204048 97 160 0.0 11.0 0.00 0.00 0.00 42 1007.4
20260903203547 96 166 6.0 11.0 0.00 0.00 0.00 43 1007.5
20260903203050 95 171 6.0 10.0 0.00 0.00 0.00 45 1007.6
20260903202547 93 263 2.0 12.0 0.00 0.00 0.00 45 1007.6
20260903202044 94 235 4.0 12.0 0.00 0.00 0.00 44 1007.8
20260903201544 94 137 2.0 8.0 0.00 0.00 0.00 45 1007.7
20260903201044 94 213 3.0 7.0 0.00 0.00 0.00 44 1007.8
20260903200543 95 125 5.0 9.0 0.00 0.00 0.00 45 1007.9
20260903200048 96 225 5.0 12.0 0.00 0.00 0.00 44 1007.9
20260903195544 97 187 8.0 14.0 0.00 0.00 0.00 43 1008.0
20260903195041 98 159 7.0 14.0 0.00 0.00 0.00 43 1008.0
20260903194543 97 150 7.0 13.0 0.00 0.00 0.00 44 1008.0
20260903194044 97 161 6.0 17.0 0.00 0.00 0.00 44 1008.1
20260903193538 97 151 5.0 17.0 0.00 0.00 0.00 45 1008.1
20260903193038 97 88 5.0 12.0 0.00 0.00 0.00 44 1008.2
20260903192537 97 94 5.0 14.0 0.00 0.00 0.00 44 1008.4
20260903192038 97 142 9.0 15.0 0.00 0.00 0.00 45 1008.4
20260903191538 97 201 3.0 13.0 0.00 0.00 0.00 45 1008.4
20260903191035 96 161 7.0 13.0 0.00 0.00 0.00 47 1008.6
20260903190536 96 165 6.0 14.0 0.00 0.00 0.00 47 1008.6
20260903190034 97 180 6.0 14.0 0.00 0.00 0.00 47 1008.7
20260903185532 96 155 4.0 10.0 0.00 0.00 0.00 48 1008.8
20260903185032 95 194 5.0 10.0 0.00 0.00 0.00 48 1008.9
20260903184529 95 228 1.0 12.0 0.00 0.00 0.00 50 1009.0
20260903184028 94 247 6.0 15.0 0.00 0.00 0.00 50 1009.1
20260903183526 95 229 9.0 12.0 0.00 0.00 0.00 49 1009.2
20260903183025 94 161 5.0 12.0 0.00 0.00 0.00 50 1009.3
20260903182524 94 226 7.0 14.0 0.00 0.00 0.00 51 1009.4
20260903182024 93 251 9.0 14.0 0.00 0.00 0.00 53 1009.6
20260903181521 93 219 8.0 12.0 0.00 0.00 0.00 52 1009.7
20260903181020 93 202 8.0 14.0 0.00 0.00 0.00 49 1009.8
20260903180524 93 240 9.0 14.0 0.00 0.00 0.00 51 1009.9
20260903180031 93 182 6.0 15.0 0.00 0.00 0.00 53 1010.0
20260903175517 92 251 6.0 15.0 0.00 0.00 0.00 53 1010.1
20260903175018 91 243 9.0 14.0 0.00 0.00 0.00 52 1010.1
20260903174515 91 236 9.0 15.0 0.00 0.00 0.00 55 1010.1
20260903174015 91 259 10.0 15.0 0.00 0.00 0.00 54 1010.1
20260903173514 91 227 10.0 12.0 0.00 0.00 0.00 56 1010.2
20260903173015 91 183 7.0 15.0 0.00 0.00 0.00 56 1010.3
20260903172514 91 147 6.0 15.0 0.00 0.00 0.00 57 1010.4
20260903172013 91 186 4.0 9.0 0.00 0.00 0.00 60 1010.4
20260903171512 90 232 5.0 11.0 0.00 0.00 0.00 62 1010.5
20260903171011 89 229 6.0 15.0 0.00 0.00 0.00 62 1010.5
20260903170511 89 215 5.0 15.0 0.00 0.00 0.00 65 1010.5
20260903170009 89 213 7.0 14.0 0.00 0.00 0.00 64 1010.6
20260903165508 89 218 8.0 14.0 0.00 0.00 0.00 64 1010.6
20260903165011 89 260 4.0 10.0 0.00 0.00 0.00 65 1010.6
20260903164507 88 213 5.0 10.0 0.00 0.00 0.00 65 1010.7
20260903164008 88 211 3.0 11.0 0.00 0.00 0.00 65 1010.7
20260903163503 87 178 5.0 11.0 0.00 0.00 0.00 66 1010.8
20260903163003 87 200 6.0 13.0 0.00 0.00 0.00 66 1010.8
20260903162502 87 187 7.0 12.0 0.00 0.00 0.00 68 1010.9
20260903162003 86 177 6.0 11.0 0.00 0.00 0.00 69 1010.8
20260903161600 86 200 5.0 11.0 0.00 0.00 0.00 65 1010.8
20260903161058 85 183 5.0 11.0 0.00 0.00 0.00 70 1010.8
20260903160557 85 175 6.0 10.0 0.00 0.00 0.00 73 1010.8
20260903160104 84 175 5.0 14.0 0.00 0.00 0.00 75 1010.8
20260903155555 84 221 7.0 14.0 0.00 0.00 0.00 74 1010.7
20260903155055 84 225 8.0 13.0 0.00 0.00 0.00 75 1010.6
20260903154553 83 221 7.0 13.0 0.00 0.00 0.00 75 1010.6
20260903154052 83 179 6.0 12.0 0.00 0.00 0.00 77 1010.6
20260903153552 83 233 9.0 13.0 0.00 0.00 0.00 77 1010.6
20260903153052 82 215 5.0 12.0 0.00 0.00 0.00 79 1010.6
20260903152552 82 221 7.0 12.0 0.00 0.00 0.00 80 1010.6
20260903152051 81 235 5.0 12.0 0.00 0.00 0.00 80 1010.7
20260903151554 81 194 6.0 14.0 0.00 0.00 0.00 80 1010.7
20260903151052 81 202 6.0 14.0 0.00 0.00 0.00 82 1010.7
20260903150550 80 217 8.0 14.0 0.00 0.00 0.00 83 1010.6
20260903150054 80 169 8.0 14.0 0.00 0.00 0.00 84 1010.6
20260903145553 79 184 8.0 13.0 0.00 0.00 0.00 85 1010.6
20260903145050 80 211 9.0 13.0 0.00 0.00 0.00 84 1010.6
20260903144554 80 217 6.0 10.0 0.00 0.00 0.00 85 1010.6
20260903144050 79 216 7.0 10.0 0.00 0.00 0.00 85 1010.7
20260903143549 79 196 6.0 10.0 0.00 0.00 0.00 86 1010.7
20260903143048 79 165 5.0 10.0 0.00 0.00 0.00 87 1010.7
20260903142548 78 182 5.0 13.0 0.00 0.00 0.00 88 1010.7
20260903142048 78 214 6.0 13.0 0.00 0.00 0.00 88 1010.7
20260903141548 78 205 7.0 13.0 0.00 0.00 0.00 88 1010.7
20260903141047 78 207 7.0 12.0 0.00 0.00 0.00 89 1010.7
20260903140547 77 217 7.0 10.0 0.00 0.00 0.00 89 1010.7
20260903140047 77 178 7.0 10.0 0.00 0.00 0.00 90 1010.7
20260903135546 77 177 4.0 10.0 0.00 0.00 0.00 91 1010.8
20260903135046 76 239 6.0 12.0 0.00 0.00 0.00 91 1010.7
20260903134546 76 203 7.0 12.0 0.00 0.00 0.00 91 1010.8
20260903134045 76 198 6.0 12.0 0.00 0.00 0.00 92 1010.8
20260903133545 76 215 8.0 13.0 0.00 0.00 0.00 92 1010.7
20260903133046 76 201 8.0 14.0 0.00 0.00 0.00 93 1010.6
20260903132547 76 209 8.0 14.0 0.00 0.00 0.00 93 1010.6
20260903132044 75 219 7.0 13.0 0.00 0.00 0.00 93 1010.6
20260903131544 75 202 7.0 13.0 0.00 0.00 0.00 93 1010.6
20260903131043 75 212 5.0 11.0 0.00 0.00 0.00 94 1010.7
20260903130545 75 219 6.0 12.0 0.00 0.00 0.00 94 1010.6
20260903130104 75 221 6.0 12.0 0.00 0.00 0.00 94 1010.5
20260903125540 75 192 5.0 8.0 0.00 0.00 0.00 94 1010.6
20260903125040 75 219 4.0 8.0 0.00 0.00 0.00 94 1010.5
20260903124539 74 189 3.0 8.0 0.00 0.00 0.00 94 1010.5
20260903124038 75 211 3.0 10.0 0.00 0.00 0.00 94 1010.4
20260903123538 75 182 6.0 10.0 0.00 0.00 0.00 94 1010.4
20260903123038 75 203 6.0 9.0 0.00 0.00 0.00 94 1010.4
20260903122540 75 209 5.0 11.0 0.00 0.00 0.00 94 1010.4
20260903122036 75 211 6.0 11.0 0.00 0.00 0.00 93 1010.3
20260903121544 75 207 5.0 9.0 0.00 0.00 0.00 93 1010.3
20260903121033 75 192 4.0 9.0 0.00 0.00 0.00 93 1010.3
20260903120537 75 216 5.0 9.0 0.00 0.00 0.00 93 1010.3
20260903120032 75 199 4.0 10.0 0.00 0.00 0.00 93 1010.2
20260903115533 75 185 5.0 10.0 0.00 0.00 0.00 93 1010.3
20260903115032 75 194 6.0 10.0 0.00 0.00 0.00 93 1010.1
20260903114534 75 211 7.0 10.0 0.00 0.00 0.00 93 1010.0
20260903114030 75 225 5.0 9.0 0.00 0.00 0.00 93 1010.1
20260903113632 75 205 6.0 9.0 0.00 0.00 0.00 93 1010.0
20260903113036 75 208 5.0 11.0 0.00 0.00 0.00 93 1010.1
20260903112530 75 213 5.0 11.0 0.00 0.00 0.00 93 1010.1
20260903112032 75 173 4.0 9.0 0.00 0.00 0.00 93 1010.2
20260903111529 76 194 7.0 9.0 0.00 0.00 0.00 92 1010.1
20260903111030 75 182 4.0 9.0 0.00 0.00 0.00 92 1010.1
20260903110531 76 185 5.0 9.0 0.00 0.00 0.00 92 1010.1
20260903110104 76 209 5.0 10.0 0.00 0.00 0.00 92 1010.1
20260903105529 76 202 4.0 9.0 0.00 0.00 0.00 92 1010.0
20260903105028 76 222 4.0 10.0 0.00 0.00 0.00 92 1010.1
20260903104528 75 198 6.0 12.0 0.00 0.00 0.00 92 1010.1
20260903104028 75 206 5.0 12.0 0.00 0.00 0.00 92 1010.1
20260903103532 75 212 4.0 13.0 0.00 0.00 0.00 92 1010.0
20260903103027 75 182 9.0 13.0 0.00 0.00 0.00 92 1009.9
20260903102526 75 198 8.0 12.0 0.00 0.00 0.00 92 1010.0
20260903102026 75 175 7.0 10.0 0.00 0.00 0.00 92 1010.1
20260903101524 75 213 5.0 10.0 0.00 0.00 0.00 92 1010.2
20260903101029 75 157 5.0 13.0 0.00 0.00 0.00 92 1010.2
20260903100524 75 167 8.0 13.0 0.00 0.00 0.00 91 1010.2
20260903100029 75 192 5.0 11.0 0.00 0.00 0.00 90 1010.0
20260903095525 75 194 5.0 9.0 0.00 0.00 0.00 90 1010.0
20260903095021 75 190 5.0 9.0 0.00 0.00 0.00 90 1010.1
20260903094543 75 188 4.0 11.0 0.00 0.00 0.00 89 1010.2
20260903094021 75 201 7.0 11.0 0.00 0.00 0.00 89 1010.1
20260903093520 75 184 5.0 11.0 0.00 0.00 0.00 89 1010.0
20260903093019 76 196 7.0 12.0 0.00 0.00 0.00 89 1010.0
20260903092519 76 205 7.0 11.0 0.00 0.00 0.00 89 1010.0
20260903092020 76 209 6.0 11.0 0.00 0.00 0.00 89 1010.0
20260903091521 76 204 6.0 13.0 0.00 0.00 0.00 89 1010.1
20260903091019 76 193 8.0 13.0 0.00 0.00 0.00 88 1010.1
20260903090516 76 175 7.0 10.0 0.00 0.00 0.00 87 1010.0
20260903090015 76 207 4.0 8.0 0.00 0.00 0.00 87 1010.0
20260903085514 76 183 5.0 9.0 0.00 0.00 0.00 86 1010.0
20260903085013 76 221 5.0 8.0 0.00 0.00 0.00 86 1010.0
20260903084513 76 208 4.0 8.0 0.00 0.00 0.00 86 1010.0
20260903084012 77 195 4.0 8.0 0.00 0.00 0.00 85 1010.1
20260903083510 77 181 4.0 7.0 0.00 0.00 0.00 85 1010.1
20260903083010 77 194 2.0 10.0 0.00 0.00 0.00 84 1010.3
20260903082509 77 181 4.0 10.0 0.00 0.00 0.00 84 1010.4
20260903082009 77 166 4.0 11.0 0.00 0.00 0.00 84 1010.4
20260903081509 77 211 6.0 11.0 0.00 0.00 0.00 84 1010.4
20260903081007 77 167 5.0 9.0 0.00 0.00 0.00 83 1010.4
20260903080507 78 170 5.0 14.0 0.00 0.00 0.00 83 1010.4
20260903080006 78 165 6.0 15.0 0.00 0.00 0.00 83 1010.5
20260903075506 78 208 7.0 15.0 0.00 0.00 0.00 83 1010.3
20260903075006 78 153 7.0 13.0 0.00 0.00 0.00 82 1010.4
20260903074505 78 203 6.0 14.0 0.00 0.00 0.00 82 1010.3
20260903074006 78 179 8.0 14.0 0.00 0.00 0.00 82 1010.3
20260903073504 78 173 4.0 16.0 0.00 0.00 0.00 82 1010.3
20260903073005 78 206 10.0 18.0 0.00 0.00 0.00 82 1010.3
20260903072503 79 204 7.0 14.0 0.00 0.00 0.00 81 1010.2
20260903072002 79 170 8.0 16.0 0.00 0.00 0.00 81 1010.2
20260903071502 79 182 9.0 16.0 0.00 0.00 0.00 81 1010.2
20260903071100 79 188 9.0 21.0 0.00 0.00 0.00 81 1010.4
20260903070559 79 178 11.0 18.0 0.00 0.00 0.00 80 1010.4
20260903070058 79 156 8.0 13.0 0.00 0.00 0.00 80 1010.4
20260903065557 79 187 7.0 13.0 0.00 0.00 0.00 79 1010.3
20260903065056 79 208 5.0 15.0 0.00 0.00 0.00 78 1010.4
20260903064602 80 187 9.0 15.0 0.00 0.00 0.00 78 1010.5
20260903064056 80 180 7.0 14.0 0.00 0.00 0.00 78 1010.5
20260903063555 80 180 7.0 14.0 0.00 0.00 0.00 77 1010.6
20260903063054 80 169 6.0 14.0 0.00 0.00 0.00 77 1010.5
20260903062555 80 153 6.0 14.0 0.00 0.00 0.00 76 1010.5
20260903062052 80 169 7.0 14.0 0.00 0.00 0.00 76 1010.5
20260903061558 80 186 6.0 14.0 0.00 0.00 0.00 76 1010.5
20260903061051 80 159 6.0 14.0 0.00 0.00 0.00 76 1010.6
20260903060550 80 180 8.0 12.0 0.00 0.00 0.00 75 1010.7
20260903060051 80 192 7.0 11.0 0.00 0.00 0.00 74 1010.7
20260903055547 80 159 7.0 11.0 0.00 0.00 0.00 73 1010.7
20260903055047 81 193 5.0 11.0 0.00 0.00 0.00 73 1010.6
20260903054550 81 204 7.0 10.0 0.00 0.00 0.00 73 1010.7
20260903054046 81 199 6.0 10.0 0.00 0.00 0.00 72 1010.6
20260903053548 81 167 6.0 12.0 0.00 0.00 0.00 71 1010.6
20260903053102 81 194 6.0 13.0 0.00 0.00 0.00 70 1010.6
20260903052544 81 176 8.0 13.0 0.00 0.00 0.00 70 1010.5
20260903052045 82 185 5.0 12.0 0.00 0.00 0.00 68 1010.6
20260903051542 82 183 6.0 12.0 0.00 0.00 0.00 68 1010.5
20260903051040 82 184 7.0 13.0 0.00 0.00 0.00 67 1010.5
20260903050541 82 184 8.0 13.0 0.00 0.00 0.00 65 1010.5
20260903050036 83 186 6.0 11.0 0.00 0.00 0.00 62 1010.6
20260903045536 83 188 5.0 10.0 0.00 0.00 0.00 60 1010.5
20260903045039 84 186 6.0 12.0 0.00 0.00 0.00 58 1010.4
20260903044547 84 180 8.0 14.0 0.00 0.00 0.00 57 1010.4
20260903044036 84 170 9.0 14.0 0.00 0.00 0.00 55 1010.4
20260903043535 84 174 8.0 17.0 0.00 0.00 0.00 54 1010.4
20260903043035 84 186 9.0 17.0 0.00 0.00 0.00 53 1010.3
20260903042536 84 164 5.0 10.0 0.00 0.00 0.00 53 1010.2
20260903042035 84 142 5.0 8.0 0.00 0.00 0.00 53 1010.2
20260903041535 83 148 4.0 8.0 0.00 0.00 0.00 53 1010.3
20260903041036 83 150 4.0 8.0 0.00 0.00 0.00 54 1010.2
20260903040534 83 148 4.0 7.0 0.00 0.00 0.00 54 1010.1
20260903040034 83 169 4.0 8.0 0.00 0.00 0.00 54 1010.1
20260903035533 83 141 4.0 8.0 0.00 0.00 0.00 54 1010.2
20260903035035 84 119 3.0 7.0 0.00 0.00 0.00 54 1010.1
20260903034636 84 173 3.0 5.0 0.00 0.00 0.00 54 1010.0
20260903034035 84 161 3.0 8.0 0.00 0.00 0.00 54 1010.0
20260903033533 84 145 4.0 8.0 0.00 0.00 0.00 54 1009.9
20260903033034 84 153 4.0 6.0 0.00 0.00 0.00 54 1010.0
20260903032537 84 152 3.0 7.0 0.00 0.00 0.00 54 1009.9
20260903032033 84 154 3.0 7.0 0.00 0.00 0.00 54 1009.8
20260903031533 84 142 3.0 7.0 0.00 0.00 0.00 53 1009.7
20260903031032 85 151 4.0 7.0 0.00 0.00 0.00 53 1009.7
20260903030533 85 157 3.0 7.0 0.00 0.00 0.00 53 1009.6
20260903030039 85 163 3.0 7.0 0.00 0.00 0.00 52 1009.6
20260903025531 85 138 4.0 5.0 0.00 0.00 0.00 52 1009.5
20260903025031 85 130 3.0 7.0 0.00 0.00 0.00 52 1009.6
20260903024539 85 151 3.0 7.0 0.00 0.00 0.00 51 1009.5
20260903024030 85 138 3.0 7.0 0.00 0.00 0.00 51 1009.3
20260903023535 85 163 4.0 7.0 0.00 0.00 0.00 51 1009.1
20260903023031 85 157 4.0 7.0 0.00 0.00 0.00 50 1009.2
20260903022530 85 153 3.0 7.0 0.00 0.00 0.00 50 1009.2
20260903022030 86 144 4.0 7.0 0.00 0.00 0.00 50 1009.0
20260903021535 86 157 4.0 7.0 0.00 0.00 0.00 50 1009.0
20260903021031 86 163 4.0 7.0 0.00 0.00 0.00 50 1008.9
20260903020531 86 164 5.0 7.0 0.00 0.00 0.00 50 1008.8
20260903020033 86 165 4.0 6.0 0.00 0.00 0.00 49 1008.7
20260903015529 86 176 4.0 5.0 0.00 0.00 0.00 49 1008.7
20260903015029 86 164 3.0 6.0 0.00 0.00 0.00 48 1008.8
20260903014528 87 172 4.0 6.0 0.00 0.00 0.00 48 1008.7
20260903014030 87 175 4.0 6.0 0.00 0.00 0.00 47 1008.6
20260903013529 87 171 4.0 6.0 0.00 0.00 0.00 47 1008.7
20260903013028 87 165 4.0 6.0 0.00 0.00 0.00 47 1008.7
20260903012528 88 182 3.0 6.0 0.00 0.00 0.00 46 1008.5
20260903012028 88 185 4.0 6.0 0.00 0.00 0.00 45 1008.5
20260903011539 88 184 3.0 5.0 0.00 0.00 0.00 45 1008.5
20260903011028 89 186 3.0 5.0 0.00 0.00 0.00 44 1008.4
20260903010527 89 197 3.0 5.0 0.00 0.00 0.00 44 1008.4
20260903010027 90 191 3.0 7.0 0.00 0.00 0.00 44 1008.3
20260903005527 90 204 4.0 6.0 0.00 0.00 0.00 43 1008.3
20260903005027 91 186 3.0 7.0 0.00 0.00 0.00 43 1008.4
20260903004531 91 209 3.0 7.0 0.00 0.00 0.00 43 1008.4
20260903004026 92 184 3.0 7.0 0.00 0.00 0.00 42 1008.4
20260903003526 92 177 4.0 7.0 0.00 0.00 0.00 42 1008.4
20260903003025 93 175 2.0 8.0 0.00 0.00 0.00 43 1008.4
20260903002525 93 161 4.0 8.0 0.00 0.00 0.00 42 1008.4
20260903002025 93 170 2.0 5.0 0.00 0.00 0.00 42 1008.4
20260903001524 94 147 3.0 7.0 0.00 0.00 0.00 42 1008.5
20260903001026 94 147 3.0 8.0 0.00 0.00 0.00 41 1008.5
20260903000524 94 164 2.0 8.0 0.00 0.00 0.00 41 1008.6
20260903000024 94 150 3.0 10.0 0.00 0.00 0.00 41 1008.6
20260902235524 95 151 6.0 10.0 0.00 0.00 0.00 40 1008.6